Change the Weather History Date:

Wednesday, September 5, 2012

  Actual Average Record
Temperature  
Mean Temperature 74 °F 68 °F  
Max Temperature 82 °F 76 °F 93 °F (1880)
Min Temperature 66 °F 61 °F 48 °F (2000)
Degree Days  
Heating Degree Days 0 1  
Month to date heating degree days 0 5  
Since 1 July heating degree days 0 18  
Cooling Degree Days 9 4  
Month to date cooling degree days 23 24  
Year to date cooling degree days 850 683  
Growing Degree Days 24 (Base 50)    
Moisture  
Dew Point 69 °F    
Average Humidity 74    
Maximum Humidity 93    
Minimum Humidity 55    
Precipitation  
Precipitation 0.66 in 0.11 in 1.06 in (1907)
Month to date precipitation 1.10 0.51  
Year to date precipitation 24.17 29.13  
Snow  
Snow 0.00 in 0.00 in 0.00 in (2002)
Month to date snowfall 0.0 0.0  
Since 1 July snowfall 0.0 0.0  
Since 1 September snowfall 0.0 0.0  
Snow Depth 0.00 in    
Sea Level Pressure  
Sea Level Pressure 29.78 in    
Wind  
Wind Speed 10 mph (SSW)    
Max Wind Speed 22 mph    
Max Gust Speed 29 mph    
Visibility 8 miles    
Events Rain    
T = Trace of Precipitation, MM = Missing Value Source: NWS Daily Summary

Daily Weather History Graph

Daily Weather History Graph

Search for Another Location

Airport or City:

Trip Planner

Search our weather history database for the weather conditions in past years. The results will help you decide how hot, cold, wet, or windy it might be!

Date:

Astronomy

Sep. 05, 2012 Rise Set
Actual Time 6:13 AM EDT 7:10 PM EDT
Civil Twilight 5:45 AM EDT 7:38 PM EDT
Nautical Twilight 5:11 AM EDT 8:12 PM EDT
Astronomical Twilight 4:35 AM EDT 8:48 PM EDT
Moon 9:30 PM EDT (9/5) 11:22 AM EDT (9/5)
Length of Visible Light 13h 53m
Length of Day
12h 56m
Waning Gibbous, 76% of the Moon is Illuminated
Sep 5
Waning Gibbous
Sep 8
Last Quarter
Sep 15
New
Sep 22
First Quarter
Sep 29
Full

Hourly Weather History & Observations

Time (EDT) Temp. Heat Index Dew Point Humidity Pressure Visibility Wind Dir Wind Speed Gust Speed Precip Events Conditions
12:19 AM 71.6 °F - 69.8 °F 94% 29.87 in 5.0 mi South 4.6 mph - N/A   Overcast
12:54 AM 73.0 °F - 71.1 °F 93% 29.86 in 7.0 mi South 9.2 mph - N/A   Overcast
1:18 AM 73.4 °F - 71.6 °F 94% 29.84 in 8.0 mi South 12.7 mph - N/A   Mostly Cloudy
1:29 AM 73.4 °F - 71.6 °F 94% 29.84 in 8.0 mi South 11.5 mph - N/A   Overcast
1:44 AM 73.4 °F - 71.6 °F 94% 29.83 in 9.0 mi South 10.4 mph - N/A   Overcast
1:54 AM 73.0 °F - 71.1 °F 93% 29.82 in 9.0 mi South 10.4 mph - N/A   Mostly Cloudy
2:02 AM 73.4 °F - 71.6 °F 94% 29.82 in 9.0 mi South 10.4 mph - N/A   Mostly Cloudy
2:54 AM 73.9 °F - 71.1 °F 91% 29.80 in 9.0 mi SSW 10.4 mph - N/A   Overcast
3:43 AM 73.4 °F - 69.8 °F 88% 29.78 in 10.0 mi South 12.7 mph - N/A   Scattered Clouds
3:54 AM 73.9 °F - 70.0 °F 87% 29.77 in 10.0 mi South 12.7 mph - N/A   Scattered Clouds
4:54 AM 73.9 °F - 71.1 °F 91% 29.75 in 5.0 mi SSW 13.8 mph 23.0 mph 0.02 in Rain Rain
5:54 AM 73.9 °F - 72.0 °F 93% 29.75 in 6.0 mi SSW 16.1 mph - 0.12 in Rain Light Rain
6:42 AM 73.4 °F - 71.6 °F 94% 29.75 in 2.5 mi SW 16.1 mph - 0.05 in Rain Heavy Rain
6:47 AM 73.4 °F - 71.6 °F 94% 29.73 in 1.2 mi SSW 17.3 mph - 0.14 in Rain Heavy Rain
6:54 AM 73.9 °F - 72.0 °F 93% 29.73 in 1.2 mi SSW 17.3 mph - 0.31 in Rain Heavy Rain
7:04 AM 73.4 °F - 71.6 °F 94% 29.74 in 3.0 mi SSW 17.3 mph - 0.08 in Rain Light Rain
7:45 AM 75.2 °F - 71.6 °F 89% 29.74 in 5.0 mi SSW 15.0 mph - 0.14 in Rain Light Rain
7:54 AM 75.0 °F - 72.0 °F 90% 29.74 in 4.0 mi SSW 16.1 mph - 0.14 in Rain Light Rain
8:54 AM 75.9 °F - 73.0 °F 91% 29.71 in 7.0 mi SSW 15.0 mph - 0.04 in   Mostly Cloudy
9:18 AM 78.8 °F - 73.4 °F 83% 29.71 in 9.0 mi SW 19.6 mph 26.5 mph N/A   Mostly Cloudy
9:54 AM 79.0 °F - 73.9 °F 84% 29.72 in 9.0 mi SW 19.6 mph - N/A   Mostly Cloudy
10:34 AM 78.8 °F - 73.4 °F 83% 29.73 in 5.0 mi SW 18.4 mph 26.5 mph 0.00 in Rain Rain
10:54 AM 77.0 °F - 73.9 °F 90% 29.73 in 4.0 mi WSW 10.4 mph 19.6 mph 0.03 in Rain Rain
11:04 AM 77.0 °F - 73.4 °F 89% 29.73 in 6.0 mi West 15.0 mph - 0.00 in Rain Light Rain
11:54 AM 77.0 °F - 70.0 °F 79% 29.74 in 10.0 mi West 13.8 mph - 0.00 in   Mostly Cloudy
12:54 PM 75.9 °F - 69.1 °F 79% 29.75 in 10.0 mi WSW 10.4 mph - N/A   Mostly Cloudy
1:54 PM 78.1 °F - 69.1 °F 74% 29.74 in 9.0 mi WSW 8.1 mph - 0.00 in   Mostly Cloudy
2:54 PM 80.1 °F 82.3 °F 66.9 °F 64% 29.75 in 9.0 mi WNW 10.4 mph - N/A   Mostly Cloudy
3:54 PM 82.0 °F 83.8 °F 64.9 °F 56% 29.75 in 10.0 mi NW 13.8 mph - N/A   Mostly Cloudy
4:54 PM 73.0 °F - 64.9 °F 76% 29.76 in 10.0 mi East 10.4 mph - N/A   Mostly Cloudy
5:54 PM 70.0 °F - 64.0 °F 81% 29.78 in 10.0 mi East 8.1 mph - N/A   Mostly Cloudy
6:54 PM 66.9 °F - 63.0 °F 87% 29.81 in 10.0 mi East 6.9 mph - N/A   Mostly Cloudy
7:54 PM 66.0 °F - 63.0 °F 90% 29.83 in 10.0 mi SE 3.5 mph - N/A   Scattered Clouds
8:54 PM 66.9 °F - 63.0 °F 87% 29.84 in 10.0 mi ESE 3.5 mph - N/A   Scattered Clouds
9:54 PM 68.0 °F - 63.0 °F 84% 29.84 in 10.0 mi Calm Calm - N/A   Mostly Cloudy
10:54 PM 66.9 °F - 63.0 °F 87% 29.84 in 10.0 mi Calm Calm - N/A   Mostly Cloudy
11:15 PM 66.2 °F - 62.6 °F 88% 29.84 in 10.0 mi Calm Calm - N/A   Overcast
11:54 PM 68.0 °F - 62.1 °F 81% 29.85 in 10.0 mi Calm Calm - N/A   Mostly Cloudy